sat.trackr.live / text

‹ back to catalog

STARLINK-4143

NORAD 53029 · 2022-076AV

PAYLOAD ACTIVE UNKNOWN

§ Identity

Operator
Country
US
Launch date
2022-07-07
Launch site
AFETR
Launch vehicle
Mass (kg)
RCS (m²)

Purposes: comms

External: N2YO · Heavens-Above · Gunter

§ Orbital elements

Epoch: 2026-09-19T16:08:17.191680Z

Period
93.85 min
Inclination
53.1606°
Eccentricity
0.0001129
Mean motion
15.34384531 rev/d
Perigee alt
462.0 km
Apogee alt
463.5 km
Semi-major
6,840.9 km
B*
1.8818e-7
RAAN
273.7630°
Arg perigee
75.6739°
Mean anomaly
284.4389°
Rev number
23,253

§ Raw data

STARLINK-41431 53029U 22076AV  26262.67242120 -.00000370  00000+0  18818-6 0  99902 53029  53.1606 273.7630 0001129  75.6739 284.4389 15.34384531232530

JSON: /api/v1/satellites/53029 · /tle

For live sub-satellite position, see the globe view (requires WebGL).

§ Visibility from observer

Set your observer location to see the next 7 days of passes ≥ 10°. The values pass through the URL so the page stays shareable.

No JS? Fill the form by hand. The geolocation button needs JavaScript.